Tri-Cities, TN

9:09 AM EST on December 10, 2019 (GMT -0500)
Tri-Cities Regional Tennessee / Virginia

Weather History for KTRI - November, 2019

Change the Weather History Date:

Monday, November 18, 2019

  Actual Average Record
Temperature  
Mean Temperature 46 °F 46 °F  
Max Temperature 58 °F 58 °F 79 °F (1958)
Min Temperature 34 °F 34 °F 15 °F (2014)
Degree Days  
Heating Degree Days 19 19  
Month to date heating degree days 405 293  
Since 1 July heating degree days 568 628  
Cooling Degree Days 0 0  
Month to date cooling degree days 0 0  
Year to date cooling degree days 1452 980  
Moisture  
Dew Point 34 °F    
Average Humidity 60    
Maximum Humidity 85    
Minimum Humidity 35    
Precipitation  
Precipitation T in 0.11 in 0.94 in (2015)
Month to date precipitation 0.96 1.74  
Year to date precipitation 49.17 36.28  
Snow  
Snow 0.00 in 0.00 in - ()
Month to date snowfall 1.1 0.1  
Since 1 July snowfall 1.1 0.2  
Since 1 September snowfall 1.1 0.2  
Snow Depth 0.00 in    
Sea Level Pressure  
Sea Level Pressure 29.76 in    
Wind  
Wind Speed 2 mph (WSW)    
Max Wind Speed 13 mph    
Max Gust Speed 16 mph    
Visibility 10 miles    
Events Rain    
T = Trace of Precipitation, MM = Missing Value Source: NWS Daily Summary

Daily Weather History Graph

Daily Weather History Graph

Search for Another Location

Airport or City:

Astronomy

Nov. 18, 2019 Rise Set
Actual Time 7:09 AM EST 5:19 PM EST
Civil Twilight 6:42 AM EST 5:46 PM EST
Nautical Twilight 6:10 AM EST 6:18 PM EST
Astronomical Twilight 5:40 AM EST 6:48 PM EST
Moon 11:03 PM EST (11/18) 12:39 PM EST (11/18)
Length of Visible Light 11h 04m
Length of Day
10h 09m
Waning Gibbous, 63% of the Moon is Illuminated
Nov 18
Waning Gibbous
Nov 19
Last Quarter
Nov 26
New
Dec 4
First Quarter
Dec 12
Full

Hourly Weather History & Observations

Time (EST) Temp. Windchill Dew Point Humidity Pressure Visibility Wind Dir Wind Speed Gust Speed Precip Events Conditions
12:53 AM 41.0 °F - 35.1 °F 79% 29.83 in 10.0 mi Calm Calm - N/A   Overcast
1:53 AM 39.0 °F 35.7 °F 34.0 °F 82% 29.81 in 10.0 mi East 4.6 mph - N/A   Overcast
2:53 AM 39.9 °F - 35.1 °F 83% 29.80 in 10.0 mi Calm Calm - N/A   Overcast
3:53 AM 41.0 °F - 35.1 °F 79% 29.78 in 10.0 mi Calm Calm - N/A   Overcast
4:53 AM 42.1 °F - 35.1 °F 76% 29.78 in 10.0 mi Calm Calm - N/A   Overcast
5:53 AM 42.1 °F 40.2 °F 36.0 °F 79% 29.78 in 10.0 mi ENE 3.5 mph - N/A   Overcast
6:53 AM 42.1 °F - 36.0 °F 79% 29.80 in 10.0 mi Calm Calm - 0.00 in   Overcast
7:53 AM 41.0 °F - 37.0 °F 86% 29.81 in 10.0 mi Calm Calm - 0.00 in Rain Light Rain
8:53 AM 42.1 °F - 37.9 °F 85% 29.81 in 10.0 mi Calm Calm - 0.00 in   Overcast
9:53 AM 43.0 °F - 37.9 °F 82% 29.81 in 10.0 mi Calm Calm - N/A   Overcast
10:53 AM 45.0 °F - 39.0 °F 80% 29.80 in 10.0 mi Calm Calm - N/A   Overcast
11:53 AM 48.0 °F - 39.9 °F 74% 29.76 in 10.0 mi Calm Calm - N/A   Overcast
12:53 PM 51.1 °F - 39.9 °F 66% 29.73 in 10.0 mi Calm Calm - N/A   Scattered Clouds
1:53 PM 55.0 °F - 37.9 °F 53% 29.70 in 10.0 mi Calm Calm - N/A   Scattered Clouds
2:53 PM 57.0 °F - 33.1 °F 40% 29.68 in 10.0 mi SW 6.9 mph - N/A   Scattered Clouds
3:53 PM 55.9 °F - 28.9 °F 36% 29.67 in 10.0 mi West 6.9 mph - N/A   Scattered Clouds
4:53 PM 52.0 °F - 27.0 °F 38% 29.68 in 10.0 mi SW 9.2 mph - N/A   Partly Cloudy
5:53 PM 46.0 °F 41.4 °F 28.0 °F 50% 29.71 in 10.0 mi WSW 9.2 mph - N/A   Partly Cloudy
6:53 PM 46.0 °F 42.5 °F 28.9 °F 51% 29.73 in 10.0 mi WSW 6.9 mph - N/A   Partly Cloudy
7:53 PM 46.0 °F 43.1 °F 28.0 °F 50% 29.74 in 10.0 mi WSW 5.8 mph - N/A   Partly Cloudy
8:53 PM 37.9 °F - 28.9 °F 70% 29.75 in 10.0 mi Calm Calm - N/A   Scattered Clouds
9:53 PM 39.0 °F - 28.9 °F 67% 29.76 in 10.0 mi Calm Calm - N/A   Partly Cloudy
10:53 PM 36.0 °F - 28.9 °F 76% 29.78 in 10.0 mi Calm Calm - N/A   Partly Cloudy
11:53 PM 36.0 °F - 28.9 °F 76% 29.79 in 10.0 mi Calm Calm - N/A   Partly Cloudy